SCP
0 0 0 0 0 0 0 0 0 0 0 0 0 0 0 0 0 0 0 0 0 0 0 0 0 0 0 0 0 0 0 0 0 0 0 0 0 0 0 0 0 0 0 0 0 0 0 0 0 0 0 0 0 0
0 0 0 0 0 0 0 0 0 0 0 0 0 0 0 0 0 0 0 0 0 0 0 0 0 0 0 0 0 0 0 0 0 0 0 0 0 0 0 0 0 0 0 0 0 0 0 0 0 0 0 0 0 0
0 0 0 0 0 0 0 0 0 0 0 0 0 0 0 0 0 0 0 0 0 0 0 0 0 0 0 0 0 0 0 0 0 0 0 0 0 0 0 0 0 0 0 0 0 0 0 0 0 0 0 0 0 0
0 0 0 0 0 0 0 0 0 0 0 0 0 0 0 0 0 0 0 0 0 0 0 0 0 0 0 0 0 0 0 0 0 0 0 0 0 0 0 0 0 0 0 0 0 0 0 0 0 0 0 0 0 0
0 0 0 0 0 0 0 0 0 0 0 0 0 0 0 0 0 0 0 0 0 0 0 0 0 0 0 0 0 0 0 0 0 0 0 0 0 0 0 0 0 0 0 0 0 0 0 0 0 0 0 0 0 0
0 0 0 0 0 0 0 0 0 0 0 0 0 0 0 0 0 0 0 0 0 0 0 0 0 0 0 0 0 0 0 0 0 0 0 0 0 0 0 0 0 0 0 0 0 0 0 0 0 0 0 0 0 0
0 0 0 0 0 0 0 0 0 0 0 0 0 0 0 0 0 0 0 0 0 0 0 0 0 0 0 0 0 0 0 0 0 0 0 0 0 0 0 0 0 0 0 0 0 0 0 0 0 0 0 0 0 0
0 0 0 0 0 0 0 0 0 0 0 0 0 0 0 0 0 0 0 0 0 0 0 0 0 0 0 0 0 0 0 0 0 0 0 0 0 0 0 0 0 0 0 0 0 0 0 0 0 0 0 0 0 0
0 0 0 0 0 0 0 0 0 0 0 0 0 0 0 0 0 0 0 0 0 0 0 0 0 0 0 0 0 0 0 0 0 0 0 0 0 0 0 0 0 0 0 0 0 0 0 0 0 0 0 0 0 0
0 0 0 0 0 0 0 0 0 0 0 0 0 0 0 0 0 0 0 0 0 -0 0 0 0 0 0 0 0 0 0 0 0 0 0 0 0 0 0 0 0 0 0 0 0 0 0 0 0 0 0 0 0 0
0 0 0 0 0 0 0 0 0 0 0 0 0 0 0 0 0 0 0 0 0 0 0 -0 0 0 0 0 0 0 0 0 0 0 0 0 0 0 0 0 0 0 0 0 0 0 0 0 0 0 0 0 0 0
0 0 0 0 0 0 0 0 0 0 0 0 0 0 0 0 0 0 0 0 0 0 0 0 -0 0 0 0 0 0 0 0 0 0 0 0 0 0 0 0 0 0 0 0 0 0 0 0 0 0 0 0 0 0
0 0 0 0 0 0 0 0 0 0 0 0 0 0 0 0 0 0 0 0 0 0 0 0 0 0 0 0 0 0 0 0 0 0 0 0 0 0 0 0 0 0 0 0 0 0 0 0 0 0 -0 0 0 0
0 0 0 0 0 0 0 0 0 0 0 0 0 0 0 0 0 0 0 0 0 0 0 0 0 0 0 0 0 0 0 0 0 0 0 0 0 0 0 0 0 0 0 0 0 0 0 0 0 0 0 0 0 0
0 0 0 0 0 0 0 0 0 0 0 0 0 0 0 0 0 0 0 0 0 0 0 0 0 0 0 0 0 0 0 0 0 0 0 0 0 0 0 0 0 0 0 0 0 0 0 0 0 0 0 0 0 0
0 0 0 0 0 0 0 0 0 0 0 0 0 0 0 0 0 0 0 0 0 0 0 0 0 0 0 0 0 0 0 0 0 0 0 0 0 0 0 0 0 0 0 0 0 0 0 0 0 0 0 0 0 0
0 0 0 0 0 0 0 0 0 0 0 0 0 0 0 0 0 0 0 0 -0 0 0 0 0 0 0 0 0 0 0 0 0 0 0 0 0 0 0 0 0 0 0 0 0 0 0 0 0 0 0 0 0 0
0 0 0 -0 0 0 0 0 0 0 0 0 0 0 0 0 0 0 0 -0 -0 0 0 0 0 0 0 0 0 0 0 0 0 0 0 0 0 0 0 0 0 0 0 0 0 0 0 0 0 0 0 0 0 0
0 0 -0 -0 -0 0 0 0 0 0 0 0 0 0 0 0 0 0 0 0 -0 -0 0 0 0 -0 0 0 0 0 0 0 0 0 0 0 0 0 0 0 0 0 0 0 0 0 0 0 0 0 0 0 0 0
0 0 0 -0 0 0 0 0 0 0 0 0 0 0 0 0 0 0 0 0 0 -0 -0 -0 0 -0 -0 -0 -0 -0 0 0 0 0 0 0 0 0 0 0 0 0 0 0 0 0 0 0 0 0 0 0 0 0
0 0 0 0 0 0 0 0 0 0 -0 0 0 0 0 0 0 0 0 0 0 0 -0 -0 -0 0 -0 -0 -0 -0 0 0 0 0 0 0 0 0 0 0 0 0 0 0 0 0 0 0 0 0 0 0 0 0
0 0 0 0 0 0 0 0 0 0 -0 -0 0 0 0 0 0 0 0 0 0 0 0 0 0 -0 -0 -0 0 0 0 0 0 0 0 0 0 0 0 0 0 0 0 0 0 0 0 0 0 0 0 0 0 0
0 0 0 0 0 0 -0 0 0 -0 -0 -0 0 0 0 0 0 0 0 0 -0 0 0 0 0 0 0 -0 -0 -0 0 0 0 0 0 0 0 0 0 0 0 0 0 0 0 0 0 0 0 0 0 0 0 0
0 0 0 -0 0 0 0 0 0 0 -0 0 0 0 0 0 0 0 0 0 0 0 0 0 0 0 0 -0 -0 -0 0 0 0 0 0 0 0 0 0 0 0 0 0 0 0 0 0 0 0 0 0 0 0 0
0 -0 0 0 -0 0 0 0 -0 -0 -0 0 -0 -0 0 0 0 0 0 0 0 0 0 0 0 0 0 0 0 0 0 0 0 0 0 0 -0 -0 0 0 0 0 0 0 0 0 0 0 0 0 0 0 0 0
0 0 0 0 0 0 -0 -0 -0 -0 -0 -0 -0 0 -0 -0 0 0 0 0 0 0 0 -0 0 0 0 0 0 0 0 0 0 0 0 0 0 0 0 0 0 0 0 0 0 0 0 0 0 0 0 0 0 0
-0 0 0 0 -0 -0 0 0 -0 0 0 -0 0 0 0 0 0 0 0 0 0 0 0 0 0 0 0 0 0 0 0 0 0 0 0 0 0 0 0 0 0 0 0 0 0 0 0 0 0 0 0 0 0 0
0 -0 0 0 0 -0 -0 0 -0 0 -0 0 0 0 0 0 0 0 0 0 0 0 0 0 0 0 0 0 0 0 0 0 0 0 0 0 0 0 0 0 0 -0 0 0 0 0 0 0 0 0 0 0 0 0
0 0 0 0 -0 -0 -0 -0 0 0 0 0 -0 0 0 0 0 0 0 0 0 0 -0 0 0 0 0 0 0 0 0 0 0 0 0 0 0 0 0 0 0 0 0 0 -0 0 0 0 0 0 0 0 0 0
-0 0 -0 0 0 -0 -0 -0 -0 0 0 0 -0 -0 0 0 0 0 0 -0 0 -0 0 0 0 0 0 0 0 0 0 0 0 0 0 0 0 0 0 0 0 0 0 0 0 0 0 0 0 0 0 0 0 0
0 0 0 0 0 -0 -0 -0 -0 0 0 0 -0 0 0 0 0 0 0 -0 0 0 0 -0 0 0 0 0 0 0 0 0 0 0 0 0 0 0 0 0 0 0 0 0 0 0 0 0 0 0 0 0 0 0
0 0 -0 0 0 -0 -0 -0 0 0 0 0 0 0 0 0 0 0 -0 0 0 0 0 0 0 0 0 0 0 0 0 0 0 0 0 0 0 0 0 0 -0 0 0 0 0 0 0 0 0 0 0 0 0 0
0 0 0 0 0 0 0 0 -0 0 0 0 0 0 0 0 0 0 0 0 0 0 0 0 0 0 0 0 0 0 0 0 0 0 0 0 0 0 0 -0 0 0 0 0 0 0 0 0 0 0 0 0 -0 0
Wind_Speed_500mb
22 22 21 21 22 22 23 24 24 23 22 23 23 24 26 27 25 23 17 7 12 19 54 36 37 30 32 23 6 18 6 2 4 4 6 8 7 10 6 10 15 16 13 9 8 10 15 29 10 9 13 6 6 12
23 23 21 21 21 21 23 23 24 24 24 23 22 22 22 22 21 20 19 16 18 26 41 36 38 39 32 22 28 10 14 18 14 5 6 5 6 5 7 5 5 2 12 10 13 11 22 32 17 17 11 8 2 9
23 20 20 22 23 24 25 25 26 26 25 24 22 21 22 21 21 23 26 20 17 22 45 45 50 40 41 45 35 11 2 8 5 10 5 5 4 6 3 5 6 9 7 8 7 3 8 19 26 24 17 11 6 13
21 21 20 20 19 19 20 21 25 28 27 25 23 23 23 24 22 26 28 16 12 13 14 21 32 44 25 48 45 45 47 39 30 23 8 5 2 9 4 7 3 8 11 4 5 7 10 8 9 23 15 8 8 5
22 21 21 21 21 22 23 23 24 26 28 28 26 24 23 24 25 26 31 25 19 14 10 31 52 43 29 24 35 41 32 34 30 11 9 6 5 5 15 9 7 14 9 4 10 16 13 11 20 16 12 6 1 6
27 24 22 21 22 23 23 23 22 26 26 27 26 25 23 24 22 18 11 14 28 26 13 7 17 25 36 33 42 47 40 43 38 12 13 21 31 10 5 7 27 32 18 32 21 18 10 20 17 11 5 9 2 14
26 26 24 23 23 22 22 22 21 21 20 23 23 24 25 23 23 20 10 6 8 22 7 10 14 25 47 30 47 31 34 34 35 31 21 33 29 25 8 18 36 38 40 37 20 17 16 16 13 9 20 7 3 5
27 26 25 24 25 23 22 21 20 19 19 25 21 21 21 21 23 27 34 36 31 14 13 6 12 23 29 34 23 33 40 43 26 30 18 27 29 26 10 28 48 39 37 52 43 34 26 19 20 24 8 9 7 5
27 32 29 24 24 25 24 21 18 16 19 23 13 11 11 14 10 17 14 19 28 18 3 10 7 8 17 38 30 30 35 11 25 24 29 19 9 12 19 44 42 36 36 38 33 41 35 32 22 17 22 18 9 7
24 27 29 25 24 25 24 21 15 12 16 14 8 3 6 10 9 11 10 9 11 19 25 17 15 10 21 19 11 15 23 9 7 16 32 20 22 47 44 32 42 50 43 35 29 49 42 35 30 27 27 16 12 5
25 23 26 27 24 23 24 21 18 14 10 6 5 6 7 15 15 11 11 11 13 9 18 18 47 23 31 7 4 11 3 7 7 12 10 8 13 42 71 70 54 44 43 36 25 42 42 37 35 36 27 18 12 2
24 24 23 28 27 23 24 21 23 22 13 10 10 7 6 10 10 9 8 9 8 10 18 14 21 36 10 13 6 5 6 5 11 8 10 24 12 36 54 65 65 66 49 48 33 34 38 41 39 34 26 17 8 2
29 30 27 25 29 25 26 26 29 18 21 20 9 8 12 13 9 11 15 7 8 12 19 21 15 20 20 16 10 6 11 11 21 6 7 5 20 47 62 53 52 50 58 55 40 40 42 40 32 26 20 12 9 3
29 30 32 29 30 26 28 30 30 27 18 9 9 8 11 10 11 11 14 16 30 29 34 34 28 24 14 12 15 8 10 7 7 9 12 7 33 45 33 29 38 46 52 60 55 51 45 38 30 22 19 16 16 6
28 27 30 32 31 29 28 33 37 30 15 10 8 11 14 23 27 29 38 45 51 43 27 19 23 19 6 6 8 5 8 11 11 8 9 38 43 36 31 20 28 50 55 50 61 54 46 37 34 31 28 18 3 4
24 23 31 29 28 33 31 31 42 32 11 11 15 11 25 22 32 43 43 39 39 22 23 14 4 5 8 9 14 15 9 12 6 7 30 25 40 42 37 31 32 61 61 57 55 50 42 39 33 29 20 5 10 8
28 31 22 18 31 34 37 44 31 18 12 13 16 28 42 46 32 40 32 23 32 19 4 11 5 12 5 9 12 11 8 4 22 31 12 9 26 16 33 31 54 62 64 61 55 46 38 31 27 21 9 16 8 7
32 22 23 18 36 38 43 34 19 14 18 22 20 31 37 37 47 59 50 24 26 15 11 7 4 3 7 9 4 17 44 33 43 54 41 24 24 41 49 56 60 64 62 55 49 43 36 28 21 15 19 11 10 9
18 14 28 34 48 47 18 18 13 9 21 27 40 48 50 51 49 48 41 35 25 17 11 13 7 6 6 6 23 59 65 59 66 23 21 30 41 51 59 62 60 56 53 47 41 37 32 28 23 29 20 24 15 14
21 20 35 35 40 26 11 12 18 16 16 32 43 48 51 52 54 50 46 38 30 21 14 8 11 18 20 23 24 38 68 65 57 35 36 38 46 53 57 59 57 51 47 41 35 30 29 27 20 16 26 21 14 16
31 24 28 38 39 31 11 10 13 16 20 31 37 45 33 39 45 46 48 44 25 12 11 21 33 31 37 40 39 43 39 43 42 13 35 47 40 54 53 54 53 48 43 38 35 32 24 22 23 38 35 24 18 11
24 30 33 38 12 10 12 17 14 13 13 24 32 32 29 17 29 38 27 26 27 45 41 45 42 32 38 45 45 37 32 33 35 22 17 44 45 54 50 50 47 43 38 36 40 34 27 28 36 34 30 23 12 5
30 27 15 13 8 9 17 19 15 13 9 9 9 10 14 27 32 37 13 22 34 44 42 48 46 37 43 40 42 34 32 36 20 18 26 38 33 36 45 45 38 38 34 25 34 40 38 37 23 19 19 10 7 7
25 16 10 12 20 11 15 20 15 12 13 18 7 8 9 16 31 22 15 38 41 35 42 46 43 39 41 35 39 37 37 33 24 11 32 48 44 49 45 42 43 34 35 34 30 24 18 20 20 18 15 13 13 10
11 13 11 14 17 13 10 8 28 19 27 20 6 8 5 8 6 10 14 17 40 42 39 37 45 40 39 31 22 25 25 17 15 13 29 28 50 45 51 40 35 28 25 33 28 24 16 29 28 23 15 13 11 10
11 17 17 14 19 11 14 9 11 15 16 8 11 6 5 6 8 11 9 36 26 35 31 27 32 33 32 27 21 19 11 16 32 11 19 36 39 46 42 40 36 28 19 14 10 19 26 36 33 31 23 10 8 14
8 12 25 31 36 15 15 30 8 5 11 10 6 6 10 9 10 3 8 9 14 9 10 13 25 31 26 20 25 36 25 20 14 7 30 27 36 29 36 29 32 33 27 23 16 8 21 28 26 23 14 3 11 3
17 12 13 22 32 28 3 13 4 10 6 6 8 7 7 6 4 6 9 11 10 8 11 9 24 28 23 26 36 32 14 20 22 39 30 27 23 35 43 48 44 37 31 24 16 12 15 21 22 15 10 5 7 14
17 18 16 26 10 5 3 5 4 5 13 10 3 1 3 9 24 25 15 6 13 5 8 16 19 29 25 23 31 37 35 40 29 7 39 47 37 30 23 18 15 14 10 12 17 14 19 17 20 17 12 12 17 16
17 20 11 9 5 4 4 4 7 9 7 8 7 9 7 10 30 26 18 21 18 7 13 21 16 31 46 47 43 36 31 24 19 18 16 24 34 39 30 30 20 9 4 5 4 14 20 23 21 12 12 22 20 14
10 7 3 7 5 9 9 4 9 21 23 20 15 14 8 11 23 44 32 34 25 14 31 28 33 40 46 30 21 19 32 25 20 28 24 29 35 24 25 29 24 9 5 2 4 2 14 18 18 19 21 24 22 16
5 6 9 6 8 13 9 6 8 9 13 18 20 15 12 14 19 26 45 36 40 42 34 23 38 32 18 18 25 35 31 30 31 33 35 29 28 26 28 25 17 12 13 12 8 16 19 12 8 17 20 23 21 14
7 12 14 13 11 12 14 11 7 8 11 9 11 19 15 7 7 15 27 41 33 36 35 41 36 28 33 39 31 35 30 25 18 15 14 13 14 18 20 20 14 17 23 14 7 12 14 14 20 21 19 19 12 16
Wind_Direction_500mb
257 257 260 265 268 270 271 274 278 283 287 288 284 282 281 277 265 266 239 166 257 274 279 269 307 326 338 355 353 344 31 26 88 146 197 229 249 250 282 242 165 170 171 195 206 222 279 139 135 163 185 181 316 331
258 259 257 261 269 270 271 275 277 279 281 285 288 280 278 282 281 266 248 218 250 255 262 270 262 254 259 268 306 307 280 314 219 160 236 253 261 297 175 238 65 309 177 194 157 210 164 183 176 167 178 235 248 56
254 257 262 269 271 270 270 270 271 273 276 278 282 282 270 268 266 273 265 257 294 303 291 277 273 254 263 257 248 256 270 344 357 6 318 270 292 42 38 279 28 314 188 170 86 144 151 200 205 201 208 165 82 11
249 254 261 267 276 284 285 283 273 269 267 270 273 275 272 258 258 263 271 251 239 284 279 287 259 276 259 250 243 241 244 268 292 311 274 219 186 331 286 255 231 235 341 309 251 176 234 323 200 140 118 85 34 61
250 255 261 265 268 275 283 287 286 280 268 262 264 268 273 267 253 260 268 274 242 241 294 301 291 261 245 242 220 225 241 254 264 269 241 230 213 308 276 288 260 273 215 161 226 316 222 151 147 143 134 116 61 353
251 254 258 261 266 273 278 280 287 289 276 266 263 264 267 271 261 270 283 261 239 241 297 279 305 277 241 243 215 229 237 243 235 236 234 255 242 223 247 233 244 256 287 268 260 277 207 170 162 162 163 185 236 350
250 250 256 263 267 273 274 275 278 289 287 275 262 259 260 264 258 216 207 183 229 228 230 267 256 264 235 242 213 218 230 233 231 236 233 255 248 254 226 239 247 267 280 285 294 199 150 171 171 214 180 189 337 1
245 249 255 260 266 272 274 270 270 273 282 283 280 263 259 265 271 260 235 245 267 318 234 252 272 293 241 202 196 218 226 229 226 230 247 216 236 240 240 226 246 250 255 268 273 226 208 192 216 180 198 186 171 91
253 250 253 259 263 268 270 261 263 260 274 297 291 252 262 253 238 266 249 243 253 233 277 300 287 289 343 211 200 215 213 218 222 218 224 242 212 221 209 222 230 227 234 258 258 218 188 182 180 197 188 175 155 58
263 257 247 247 255 270 257 251 240 241 281 302 167 118 234 209 220 224 210 208 212 200 200 229 234 261 316 287 241 244 205 215 244 219 219 219 232 237 249 244 239 230 235 246 266 183 183 186 202 208 185 165 127 111
263 258 243 242 252 265 245 238 220 228 274 164 184 247 217 191 190 199 208 198 182 229 220 225 215 223 238 271 288 337 261 272 238 223 206 226 224 226 237 245 246 210 213 220 285 215 196 194 198 176 152 136 136 135
254 241 251 245 245 257 237 224 206 209 185 213 289 270 202 206 221 203 203 203 213 238 196 201 224 206 209 232 20 271 261 259 253 253 204 233 230 229 235 238 242 237 228 221 242 199 196 188 177 165 149 143 142 96
250 243 243 244 239 248 229 215 207 204 225 238 242 228 189 212 209 211 193 193 220 219 204 197 177 171 176 199 161 264 239 222 292 240 234 203 216 236 236 231 236 232 224 212 211 192 176 167 167 172 158 163 186 165
247 245 243 246 235 238 221 210 201 193 209 229 233 248 209 196 235 203 232 214 212 236 242 211 205 182 170 157 198 215 255 269 250 230 207 189 234 249 236 234 235 222 213 199 198 180 168 167 166 169 173 179 176 190
248 241 247 232 229 220 213 202 194 186 195 231 249 232 222 231 243 253 235 240 254 261 256 230 217 187 176 182 199 210 249 226 226 221 216 234 235 236 228 259 229 202 181 187 175 165 160 158 160 159 169 175 191 228
234 236 221 222 219 204 198 195 188 186 216 221 236 253 266 274 246 255 268 273 277 236 252 253 287 261 216 182 198 183 225 227 214 221 265 253 241 235 235 225 206 176 174 164 159 155 153 159 163 167 164 149 175 194
220 235 227 224 206 195 196 194 177 193 219 224 238 233 259 289 283 295 304 314 319 294 199 101 262 228 186 260 203 205 214 307 289 296 298 222 194 195 187 195 173 165 161 158 155 158 158 161 171 172 162 187 218 300
222 206 186 191 188 185 189 199 183 215 234 242 253 255 248 251 260 272 287 312 339 324 183 163 238 228 222 212 300 347 332 319 272 266 261 266 239 190 170 155 152 151 149 151 154 158 163 170 184 192 195 171 148 166
229 183 176 180 192 187 183 197 219 245 238 244 250 244 245 259 267 270 282 286 284 285 256 172 203 239 242 301 341 326 316 322 316 170 174 173 168 163 155 153 153 152 153 152 156 161 168 178 193 165 151 163 134 141
206 202 183 191 198 195 207 212 202 237 248 243 253 250 244 244 252 259 259 260 271 280 211 211 220 232 219 254 276 315 302 304 323 166 158 164 158 162 156 154 154 155 155 159 163 169 172 179 210 202 177 185 197 215
215 187 178 184 196 218 210 224 230 244 263 240 240 250 246 248 241 241 249 244 254 239 252 229 248 261 277 282 286 279 302 335 327 326 163 148 151 160 153 154 157 161 163 169 175 187 200 209 209 186 181 198 206 238
161 183 168 190 194 208 257 230 239 268 300 274 297 255 242 252 262 263 256 222 237 239 246 258 263 273 278 287 290 293 294 331 319 309 182 157 162 159 155 160 163 165 177 188 194 197 191 194 166 162 168 174 204 244
171 168 177 180 214 239 256 225 231 235 240 243 263 280 255 244 236 244 230 235 240 238 238 244 252 259 263 271 272 287 276 281 276 222 229 186 186 163 156 166 171 178 189 187 177 182 160 152 151 159 170 186 237 290
160 177 181 201 207 249 234 216 223 232 239 245 241 242 259 257 249 226 246 238 243 231 225 236 245 253 250 252 255 258 266 280 260 238 214 191 203 186 189 177 184 196 200 179 180 163 153 158 167 168 188 225 257 296
153 207 204 226 216 229 241 251 241 234 251 252 239 252 244 244 240 219 226 217 212 210 216 234 244 248 238 239 233 244 261 236 201 142 157 164 180 186 173 175 174 164 143 149 148 150 169 169 175 177 172 200 241 301
219 210 205 221 206 201 203 223 222 224 251 207 235 215 245 229 241 242 230 227 239 192 219 234 243 232 225 231 245 234 143 170 149 173 170 156 169 144 145 143 136 134 162 182 177 190 186 174 186 190 193 206 343 333
241 241 216 237 258 284 268 276 282 182 184 220 215 234 191 200 232 350 70 84 137 145 230 265 218 204 217 209 185 164 122 157 190 206 101 109 145 178 189 171 183 172 166 164 162 142 181 188 190 185 190 143 21 128
238 267 251 269 271 255 294 294 281 208 236 268 284 18 350 344 305 344 104 75 51 252 298 190 167 175 162 158 155 160 170 185 155 114 106 130 139 139 147 135 136 145 149 147 148 160 168 187 190 186 182 130 75 147
246 252 277 260 243 149 183 263 293 324 345 359 101 190 338 333 342 16 35 63 195 170 81 186 143 168 182 140 152 148 149 142 136 169 135 128 127 122 131 136 145 139 137 169 183 179 168 186 181 167 173 149 150 137
258 250 247 135 135 85 49 303 310 356 18 51 95 95 81 56 41 37 43 54 90 113 120 130 153 160 147 121 121 120 131 131 116 153 209 172 151 140 135 139 148 179 199 165 175 210 188 187 194 217 187 165 148 156
220 231 81 78 96 150 152 117 86 63 62 72 87 103 76 22 39 39 48 50 48 99 137 137 136 126 142 140 142 151 127 127 113 123 134 120 139 137 143 154 159 190 228 217 146 209 170 140 137 135 144 152 158 187
232 213 156 119 138 166 165 118 81 57 44 40 31 39 46 43 27 35 42 54 79 91 110 125 123 130 120 126 151 151 143 122 122 117 129 137 129 135 144 163 179 170 148 139 113 133 133 123 163 171 164 173 180 198
116 129 119 123 145 181 191 169 127 97 47 50 41 32 41 55 26 7 32 50 75 70 75 92 103 115 102 123 129 131 130 135 134 135 151 163 170 164 171 174 180 159 150 153 114 125 145 152 148 145 158 173 182 154
Wind_Speed_850mb
22 22 21 21 22 22 23 24 24 23 22 23 23 24 26 27 25 23 17 7 12 19 54 36 37 30 32 23 6 18 6 2 4 4 6 8 7 10 6 10 15 16 13 9 8 10 15 29 10 9 13 6 6 12
23 23 21 21 21 21 23 23 24 24 24 23 22 22 22 22 21 20 19 16 18 26 41 36 38 39 32 22 28 10 14 18 14 5 6 5 6 5 7 5 5 2 12 10 13 11 22 32 17 17 11 8 2 9
23 20 20 22 23 24 25 25 26 26 25 24 22 21 22 21 21 23 26 20 17 22 45 45 50 40 41 45 35 11 2 8 5 10 5 5 4 6 3 5 6 9 7 8 7 3 8 19 26 24 17 11 6 13
21 21 20 20 19 19 20 21 25 28 27 25 23 23 23 24 22 26 28 16 12 13 14 21 32 44 25 48 45 45 47 39 30 23 8 5 2 9 4 7 3 8 11 4 5 7 10 8 9 23 15 8 8 5
22 21 21 21 21 22 23 23 24 26 28 28 26 24 23 24 25 26 31 25 19 14 10 31 52 43 29 24 35 41 32 34 30 11 9 6 5 5 15 9 7 14 9 4 10 16 13 11 20 16 12 6 1 6
27 24 22 21 22 23 23 23 22 26 26 27 26 25 23 24 22 18 11 14 28 26 13 7 17 25 36 33 42 47 40 43 38 12 13 21 31 10 5 7 27 32 18 32 21 18 10 20 17 11 5 9 2 14
26 26 24 23 23 22 22 22 21 21 20 23 23 24 25 23 23 20 10 6 8 22 7 10 14 25 47 30 47 31 34 34 35 31 21 33 29 25 8 18 36 38 40 37 20 17 16 16 13 9 20 7 3 5
27 26 25 24 25 23 22 21 20 19 19 25 21 21 21 21 23 27 34 36 31 14 13 6 12 23 29 34 23 33 40 43 26 30 18 27 29 26 10 28 48 39 37 52 43 34 26 19 20 24 8 9 7 5
27 32 29 24 24 25 24 21 18 16 19 23 13 11 11 14 10 17 14 19 28 18 3 10 7 8 17 38 30 30 35 11 25 24 29 19 9 12 19 44 42 36 36 38 33 41 35 32 22 17 22 18 9 7
24 27 29 25 24 25 24 21 15 12 16 14 8 3 6 10 9 11 10 9 11 19 25 17 15 10 21 19 11 15 23 9 7 16 32 20 22 47 44 32 42 50 43 35 29 49 42 35 30 27 27 16 12 5
25 23 26 27 24 23 24 21 18 14 10 6 5 6 7 15 15 11 11 11 13 9 18 18 47 23 31 7 4 11 3 7 7 12 10 8 13 42 71 70 54 44 43 36 25 42 42 37 35 36 27 18 12 2
24 24 23 28 27 23 24 21 23 22 13 10 10 7 6 10 10 9 8 9 8 10 18 14 21 36 10 13 6 5 6 5 11 8 10 24 12 36 54 65 65 66 49 48 33 34 38 41 39 34 26 17 8 2
29 30 27 25 29 25 26 26 29 18 21 20 9 8 12 13 9 11 15 7 8 12 19 21 15 20 20 16 10 6 11 11 21 6 7 5 20 47 62 53 52 50 58 55 40 40 42 40 32 26 20 12 9 3
29 30 32 29 30 26 28 30 30 27 18 9 9 8 11 10 11 11 14 16 30 29 34 34 28 24 14 12 15 8 10 7 7 9 12 7 33 45 33 29 38 46 52 60 55 51 45 38 30 22 19 16 16 6
28 27 30 32 31 29 28 33 37 30 15 10 8 11 14 23 27 29 38 45 51 43 27 19 23 19 6 6 8 5 8 11 11 8 9 38 43 36 31 20 28 50 55 50 61 54 46 37 34 31 28 18 3 4
24 23 31 29 28 33 31 31 42 32 11 11 15 11 25 22 32 43 43 39 39 22 23 14 4 5 8 9 14 15 9 12 6 7 30 25 40 42 37 31 32 61 61 57 55 50 42 39 33 29 20 5 10 8
28 31 22 18 31 34 37 44 31 18 12 13 16 28 42 46 32 40 32 23 32 19 4 11 5 12 5 9 12 11 8 4 22 31 12 9 26 16 33 31 54 62 64 61 55 46 38 31 27 21 9 16 8 7
32 22 23 18 36 38 43 34 19 14 18 22 20 31 37 37 47 59 50 24 26 15 11 7 4 3 7 9 4 17 44 33 43 54 41 24 24 41 49 56 60 64 62 55 49 43 36 28 21 15 19 11 10 9
18 14 28 34 48 47 18 18 13 9 21 27 40 48 50 51 49 48 41 35 25 17 11 13 7 6 6 6 23 59 65 59 66 23 21 30 41 51 59 62 60 56 53 47 41 37 32 28 23 29 20 24 15 14
21 20 35 35 40 26 11 12 18 16 16 32 43 48 51 52 54 50 46 38 30 21 14 8 11 18 20 23 24 38 68 65 57 35 36 38 46 53 57 59 57 51 47 41 35 30 29 27 20 16 26 21 14 16
31 24 28 38 39 31 11 10 13 16 20 31 37 45 33 39 45 46 48 44 25 12 11 21 33 31 37 40 39 43 39 43 42 13 35 47 40 54 53 54 53 48 43 38 35 32 24 22 23 38 35 24 18 11
24 30 33 38 12 10 12 17 14 13 13 24 32 32 29 17 29 38 27 26 27 45 41 45 42 32 38 45 45 37 32 33 35 22 17 44 45 54 50 50 47 43 38 36 40 34 27 28 36 34 30 23 12 5
30 27 15 13 8 9 17 19 15 13 9 9 9 10 14 27 32 37 13 22 34 44 42 48 46 37 43 40 42 34 32 36 20 18 26 38 33 36 45 45 38 38 34 25 34 40 38 37 23 19 19 10 7 7
25 16 10 12 20 11 15 20 15 12 13 18 7 8 9 16 31 22 15 38 41 35 42 46 43 39 41 35 39 37 37 33 24 11 32 48 44 49 45 42 43 34 35 34 30 24 18 20 20 18 15 13 13 10
11 13 11 14 17 13 10 8 28 19 27 20 6 8 5 8 6 10 14 17 40 42 39 37 45 40 39 31 22 25 25 17 15 13 29 28 50 45 51 40 35 28 25 33 28 24 16 29 28 23 15 13 11 10
11 17 17 14 19 11 14 9 11 15 16 8 11 6 5 6 8 11 9 36 26 35 31 27 32 33 32 27 21 19 11 16 32 11 19 36 39 46 42 40 36 28 19 14 10 19 26 36 33 31 23 10 8 14
8 12 25 31 36 15 15 30 8 5 11 10 6 6 10 9 10 3 8 9 14 9 10 13 25 31 26 20 25 36 25 20 14 7 30 27 36 29 36 29 32 33 27 23 16 8 21 28 26 23 14 3 11 3
17 12 13 22 32 28 3 13 4 10 6 6 8 7 7 6 4 6 9 11 10 8 11 9 24 28 23 26 36 32 14 20 22 39 30 27 23 35 43 48 44 37 31 24 16 12 15 21 22 15 10 5 7 14
17 18 16 26 10 5 3 5 4 5 13 10 3 1 3 9 24 25 15 6 13 5 8 16 19 29 25 23 31 37 35 40 29 7 39 47 37 30 23 18 15 14 10 12 17 14 19 17 20 17 12 12 17 16
17 20 11 9 5 4 4 4 7 9 7 8 7 9 7 10 30 26 18 21 18 7 13 21 16 31 46 47 43 36 31 24 19 18 16 24 34 39 30 30 20 9 4 5 4 14 20 23 21 12 12 22 20 14
10 7 3 7 5 9 9 4 9 21 23 20 15 14 8 11 23 44 32 34 25 14 31 28 33 40 46 30 21 19 32 25 20 28 24 29 35 24 25 29 24 9 5 2 4 2 14 18 18 19 21 24 22 16
5 6 9 6 8 13 9 6 8 9 13 18 20 15 12 14 19 26 45 36 40 42 34 23 38 32 18 18 25 35 31 30 31 33 35 29 28 26 28 25 17 12 13 12 8 16 19 12 8 17 20 23 21 14
7 12 14 13 11 12 14 11 7 8 11 9 11 19 15 7 7 15 27 41 33 36 35 41 36 28 33 39 31 35 30 25 18 15 14 13 14 18 20 20 14 17 23 14 7 12 14 14 20 21 19 19 12 16
Wind_Direction_850mb
257 257 260 265 268 270 271 274 278 283 287 288 284 282 281 277 265 266 239 166 257 274 279 269 307 326 338 355 353 344 31 26 88 146 197 229 249 250 282 242 165 170 171 195 206 222 279 139 135 163 185 181 316 331
258 259 257 261 269 270 271 275 277 279 281 285 288 280 278 282 281 266 248 218 250 255 262 270 262 254 259 268 306 307 280 314 219 160 236 253 261 297 175 238 65 309 177 194 157 210 164 183 176 167 178 235 248 56
254 257 262 269 271 270 270 270 271 273 276 278 282 282 270 268 266 273 265 257 294 303 291 277 273 254 263 257 248 256 270 344 357 6 318 270 292 42 38 279 28 314 188 170 86 144 151 200 205 201 208 165 82 11
249 254 261 267 276 284 285 283 273 269 267 270 273 275 272 258 258 263 271 251 239 284 279 287 259 276 259 250 243 241 244 268 292 311 274 219 186 331 286 255 231 235 341 309 251 176 234 323 200 140 118 85 34 61
250 255 261 265 268 275 283 287 286 280 268 262 264 268 273 267 253 260 268 274 242 241 294 301 291 261 245 242 220 225 241 254 264 269 241 230 213 308 276 288 260 273 215 161 226 316 222 151 147 143 134 116 61 353
251 254 258 261 266 273 278 280 287 289 276 266 263 264 267 271 261 270 283 261 239 241 297 279 305 277 241 243 215 229 237 243 235 236 234 255 242 223 247 233 244 256 287 268 260 277 207 170 162 162 163 185 236 350
250 250 256 263 267 273 274 275 278 289 287 275 262 259 260 264 258 216 207 183 229 228 230 267 256 264 235 242 213 218 230 233 231 236 233 255 248 254 226 239 247 267 280 285 294 199 150 171 171 214 180 189 337 1
245 249 255 260 266 272 274 270 270 273 282 283 280 263 259 265 271 260 235 245 267 318 234 252 272 293 241 202 196 218 226 229 226 230 247 216 236 240 240 226 246 250 255 268 273 226 208 192 216 180 198 186 171 91
253 250 253 259 263 268 270 261 263 260 274 297 291 252 262 253 238 266 249 243 253 233 277 300 287 289 343 211 200 215 213 218 222 218 224 242 212 221 209 222 230 227 234 258 258 218 188 182 180 197 188 175 155 58
263 257 247 247 255 270 257 251 240 241 281 302 167 118 234 209 220 224 210 208 212 200 200 229 234 261 316 287 241 244 205 215 244 219 219 219 232 237 249 244 239 230 235 246 266 183 183 186 202 208 185 165 127 111
263 258 243 242 252 265 245 238 220 228 274 164 184 247 217 191 190 199 208 198 182 229 220 225 215 223 238 271 288 337 261 272 238 223 206 226 224 226 237 245 246 210 213 220 285 215 196 194 198 176 152 136 136 135
254 241 251 245 245 257 237 224 206 209 185 213 289 270 202 206 221 203 203 203 213 238 196 201 224 206 209 232 20 271 261 259 253 253 204 233 230 229 235 238 242 237 228 221 242 199 196 188 177 165 149 143 142 96
250 243 243 244 239 248 229 215 207 204 225 238 242 228 189 212 209 211 193 193 220 219 204 197 177 171 176 199 161 264 239 222 292 240 234 203 216 236 236 231 236 232 224 212 211 192 176 167 167 172 158 163 186 165
247 245 243 246 235 238 221 210 201 193 209 229 233 248 209 196 235 203 232 214 212 236 242 211 205 182 170 157 198 215 255 269 250 230 207 189 234 249 236 234 235 222 213 199 198 180 168 167 166 169 173 179 176 190
248 241 247 232 229 220 213 202 194 186 195 231 249 232 222 231 243 253 235 240 254 261 256 230 217 187 176 182 199 210 249 226 226 221 216 234 235 236 228 259 229 202 181 187 175 165 160 158 160 159 169 175 191 228
234 236 221 222 219 204 198 195 188 186 216 221 236 253 266 274 246 255 268 273 277 236 252 253 287 261 216 182 198 183 225 227 214 221 265 253 241 235 235 225 206 176 174 164 159 155 153 159 163 167 164 149 175 194
220 235 227 224 206 195 196 194 177 193 219 224 238 233 259 289 283 295 304 314 319 294 199 101 262 228 186 260 203 205 214 307 289 296 298 222 194 195 187 195 173 165 161 158 155 158 158 161 171 172 162 187 218 300
222 206 186 191 188 185 189 199 183 215 234 242 253 255 248 251 260 272 287 312 339 324 183 163 238 228 222 212 300 347 332 319 272 266 261 266 239 190 170 155 152 151 149 151 154 158 163 170 184 192 195 171 148 166
229 183 176 180 192 187 183 197 219 245 238 244 250 244 245 259 267 270 282 286 284 285 256 172 203 239 242 301 341 326 316 322 316 170 174 173 168 163 155 153 153 152 153 152 156 161 168 178 193 165 151 163 134 141
206 202 183 191 198 195 207 212 202 237 248 243 253 250 244 244 252 259 259 260 271 280 211 211 220 232 219 254 276 315 302 304 323 166 158 164 158 162 156 154 154 155 155 159 163 169 172 179 210 202 177 185 197 215
215 187 178 184 196 218 210 224 230 244 263 240 240 250 246 248 241 241 249 244 254 239 252 229 248 261 277 282 286 279 302 335 327 326 163 148 151 160 153 154 157 161 163 169 175 187 200 209 209 186 181 198 206 238
161 183 168 190 194 208 257 230 239 268 300 274 297 255 242 252 262 263 256 222 237 239 246 258 263 273 278 287 290 293 294 331 319 309 182 157 162 159 155 160 163 165 177 188 194 197 191 194 166 162 168 174 204 244
171 168 177 180 214 239 256 225 231 235 240 243 263 280 255 244 236 244 230 235 240 238 238 244 252 259 263 271 272 287 276 281 276 222 229 186 186 163 156 166 171 178 189 187 177 182 160 152 151 159 170 186 237 290
160 177 181 201 207 249 234 216 223 232 239 245 241 242 259 257 249 226 246 238 243 231 225 236 245 253 250 252 255 258 266 280 260 238 214 191 203 186 189 177 184 196 200 179 180 163 153 158 167 168 188 225 257 296
153 207 204 226 216 229 241 251 241 234 251 252 239 252 244 244 240 219 226 217 212 210 216 234 244 248 238 239 233 244 261 236 201 142 157 164 180 186 173 175 174 164 143 149 148 150 169 169 175 177 172 200 241 301
219 210 205 221 206 201 203 223 222 224 251 207 235 215 245 229 241 242 230 227 239 192 219 234 243 232 225 231 245 234 143 170 149 173 170 156 169 144 145 143 136 134 162 182 177 190 186 174 186 190 193 206 343 333
241 241 216 237 258 284 268 276 282 182 184 220 215 234 191 200 232 350 70 84 137 145 230 265 218 204 217 209 185 164 122 157 190 206 101 109 145 178 189 171 183 172 166 164 162 142 181 188 190 185 190 143 21 128
238 267 251 269 271 255 294 294 281 208 236 268 284 18 350 344 305 344 104 75 51 252 298 190 167 175 162 158 155 160 170 185 155 114 106 130 139 139 147 135 136 145 149 147 148 160 168 187 190 186 182 130 75 147
246 252 277 260 243 149 183 263 293 324 345 359 101 190 338 333 342 16 35 63 195 170 81 186 143 168 182 140 152 148 149 142 136 169 135 128 127 122 131 136 145 139 137 169 183 179 168 186 181 167 173 149 150 137
258 250 247 135 135 85 49 303 310 356 18 51 95 95 81 56 41 37 43 54 90 113 120 130 153 160 147 121 121 120 131 131 116 153 209 172 151 140 135 139 148 179 199 165 175 210 188 187 194 217 187 165 148 156
220 231 81 78 96 150 152 117 86 63 62 72 87 103 76 22 39 39 48 50 48 99 137 137 136 126 142 140 142 151 127 127 113 123 134 120 139 137 143 154 159 190 228 217 146 209 170 140 137 135 144 152 158 187
232 213 156 119 138 166 165 118 81 57 44 40 31 39 46 43 27 35 42 54 79 91 110 125 123 130 120 126 151 151 143 122 122 117 129 137 129 135 144 163 179 170 148 139 113 133 133 123 163 171 164 173 180 198
116 129 119 123 145 181 191 169 127 97 47 50 41 32 41 55 26 7 32 50 75 70 75 92 103 115 102 123 129 131 130 135 134 135 151 163 170 164 171 174 180 159 150 153 114 125 145 152 148 145 158 173 182 154